Temp
53 57 58 57 59 59 55 54 53 56 55 61 62 62 64 66 69 73 74 76 74 74 72 73 73 72 73 75 75 76 75 75 75 76 76 76 75 75 75 74 74 74 73 73
50 57 56 56 60 61 59 58 58 57 58 63 64 63 64 68 68 72 73 75 77 76 74 74 76 73 74 74 75 76 75 75 75 74 74 74 74 74 74 74 73 73 73 73
46 51 53 51 56 59 59 59 61 56 62 62 62 65 65 69 68 68 72 74 75 76 80 78 77 73 73 73 74 75 74 74 74 74 74 74 74 73 73 73 73 73 73 73
46 45 40 55 61 64 62 62 61 60 62 64 62 65 68 68 66 68 72 73 73 78 77 76 74 74 72 73 74 74 73 74 74 74 74 73 73 73 73 73 72 72 73 73
43 42 48 57 61 61 59 60 62 60 62 64 65 65 64 71 70 69 70 72 74 76 76 74 75 74 74 74 73 73 73 73 73 73 73 72 72 72 72 72 72 72 73 73
40 40 40 53 62 64 62 52 64 62 61 61 62 56 63 68 70 69 71 72 73 76 75 74 73 75 75 73 73 73 73 74 74 74 74 73 73 72 72 73 73 73 73 73
42 42 49 58 63 63 49 53 61 63 62 61 57 60 66 68 68 68 69 70 72 75 75 76 75 77 74 74 74 76 75 75 74 74 74 74 73 72 72 73 73 72 73 73
41 41 43 62 61 56 59 59 62 62 62 61 62 64 65 65 65 67 67 68 70 70 72 74 76 77 73 73 75 75 74 74 74 73 74 74 73 73 73 73 72 72 72 72
48 48 57 58 62 63 61 59 60 60 62 62 61 62 63 62 64 65 65 65 67 70 70 70 72 75 74 74 74 74 74 73 73 74 74 73 73 72 72 73 72 72 71 70
51 55 56 58 60 61 62 60 62 62 62 62 60 62 62 62 63 63 64 65 66 69 68 67 68 69 71 74 75 74 74 73 73 73 72 73 73 72 72 71 70 69 69 68
48 54 57 60 60 61 62 63 63 63 63 62 62 61 62 62 61 63 63 64 64 68 68 67 69 68 68 68 71 73 72 71 71 71 71 69 65 65 67 64 66 68 67 67
49 56 56 57 60 64 61 62 63 62 62 63 63 61 62 61 61 61 63 64 63 65 67 67 68 67 67 67 68 69 68 68 67 67 67 68 65 62 51 51 50 50 51 59
56 58 56 59 61 64 62 63 64 64 64 62 63 61 61 61 62 62 62 63 62 63 67 67 67 67 67 66 67 67 67 67 65 65 66 66 65 65 64 57 49 48 49 49
57 57 57 60 59 64 64 67 66 66 66 64 64 63 63 62 61 61 62 62 63 65 66 66 67 66 67 67 67 66 64 57 66 66 67 67 66 67 66 65 64 63 50 50
58 59 63 60 61 62 65 65 64 64 65 64 64 63 62 62 60 61 62 63 64 65 65 65 66 64 67 67 67 66 66 66 66 66 66 65 67 67 67 65 65 63 60 53
58 59 58 58 59 62 63 63 63 63 63 64 63 64 63 62 62 63 64 64 64 63 64 65 65 65 66 67 67 67 67 61 64 66 65 67 67 67 67 66 64 63 63 62
55 56 57 57 60 62 63 63 62 64 64 63 63 64 63 63 62 63 63 64 64 63 63 64 63 65 66 67 67 66 67 67 64 67 66 67 68 68 67 67 66 64 63 56
58 58 59 60 61 62 63 64 62 63 63 63 63 64 62 62 61 62 62 62 62 62 63 64 64 65 66 66 67 66 66 66 66 66 65 66 67 67 65 66 65 65 62 55
61 60 60 61 62 62 62 62 62 61 62 62 62 63 63 63 63 62 62 62 61 61 61 63 64 65 65 66 66 66 66 66 65 65 64 60 64 65 65 64 64 63 62 61
61 62 63 62 62 62 61 62 62 60 61 61 61 61 60 60 61 61 61 60 60 62 62 64 65 65 65 66 65 67 67 67 66 66 66 65 65 64 63 56 64 64 64 64
60 60 61 61 60 61 62 61 60 60 61 61 61 61 60 59 61 61 60 59 61 62 64 62 63 63 65 65 67 67 68 67 67 67 66 65 65 65 64 63 62 62 62 62
57 57 58 58 58 58 60 59 59 59 60 59 60 60 60 59 60 60 61 62 62 56 61 62 62 62 64 64 67 68 67 66 65 64 63 62 62 61 60 59 59 58 57 57
55 56 56 56 57 56 57 58 58 58 58 59 59 59 60 61 62 60 60 62 63 59 62 62 59 59 60 63 64 64 64 63 62 61 60 59 59 58 57 56 56 56 56 55
53 54 55 57 57 56 56 57 62 58 57 59 60 60 60 59 60 62 62 57 56 58 60 59 59 58 60 62 61 61 61 60 58 58 57 52 57 57 56 56 56 55 55 53
53 53 54 55 55 55 55 59 60 58 59 60 60 60 61 62 63 61 63 61 55 59 61 57 58 58 61 60 59 58 58 58 58 58 58 57 56 55 55 54 54 53 53 52
52 53 54 54 55 56 57 59 58 59 59 59 59 60 61 60 61 61 60 59 61 58 63 63 63 62 60 59 58 58 58 59 58 56 55 55 54 53 53 53 52 51 51 50
54 50 53 54 54 55 57 58 58 59 58 59 59 60 60 61 60 60 58 62 62 62 62 60 61 59 60 59 58 57 57 57 54 56 56 56 55 54 53 52 51 51 50 50
MSLP
1008.46 1008.06 1007.53 1007.03 1006.94 1007.25 1007.77 1007.77 1008.16 1007.58 1007.48 1006.20 1005.65 1005.44 1004.73 1003.87 1002.84 1001.78 1001.11 1000.82 1000.62 1000.80 1000.59 1001.02 1001.44 1002.06 1002.56 1003.25 1004.01 1004.98 1005.86 1006.32 1006.69 1007.21 1007.82 1008.42 1008.77 1009.10 1009.55 1010.09 1010.40 1010.81 1011.37 1011.83
1009.14 1008.25 1007.90 1007.51 1006.89 1006.80 1006.89 1006.81 1006.86 1006.78 1006.52 1005.43 1005.21 1004.98 1004.71 1003.76 1002.98 1002.25 1001.48 1001.31 1000.46 1000.19 1000.67 1000.55 1001.14 1001.08 1001.98 1002.87 1003.61 1004.40 1004.92 1005.37 1006.07 1006.65 1007.24 1007.88 1008.36 1008.88 1009.41 1009.76 1010.17 1010.55 1010.81 1011.26
1010.10 1009.00 1008.41 1007.48 1006.34 1006.19 1006.09 1006.06 1006.01 1006.24 1005.86 1005.71 1005.51 1005.01 1004.62 1003.54 1003.07 1002.44 1001.86 1001.03 1000.33 1000.08 999.65 999.62 1000.10 1000.99 1001.51 1002.42 1003.24 1004.43 1004.92 1004.99 1005.45 1006.18 1006.78 1007.33 1007.89 1008.47 1009.05 1009.46 1009.88 1010.27 1010.58 1010.92
1010.87 1009.91 1008.86 1006.90 1005.93 1005.56 1005.68 1005.58 1005.57 1005.65 1005.69 1005.94 1005.93 1005.31 1004.51 1003.72 1003.24 1002.52 1001.65 1001.08 1000.39 999.97 1000.34 998.88 998.71 999.96 1001.55 1002.15 1002.93 1003.96 1004.57 1004.92 1005.12 1005.66 1006.32 1007.01 1007.57 1008.05 1008.60 1009.13 1009.42 1009.87 1010.29 1010.61
1011.39 1010.45 1008.79 1007.04 1006.23 1005.75 1005.75 1005.53 1005.41 1005.75 1006.05 1006.07 1005.57 1004.78 1003.88 1003.23 1002.89 1002.98 1001.94 1000.69 1000.09 999.96 999.69 999.84 999.16 999.76 1001.20 1001.45 1002.44 1003.43 1004.10 1004.58 1005.06 1005.40 1005.98 1006.70 1007.23 1007.65 1008.20 1008.69 1009.11 1009.45 1009.74 1010.12
1011.72 1010.65 1009.03 1006.90 1005.91 1005.62 1005.70 1005.41 1005.32 1005.80 1006.08 1006.18 1005.99 1005.79 1004.09 1003.50 1003.08 1001.93 1001.19 1000.48 999.79 999.86 999.23 999.48 1000.09 1000.54 1000.20 1001.00 1002.11 1002.78 1003.62 1003.86 1004.47 1005.11 1005.67 1006.33 1006.79 1007.26 1007.78 1008.17 1008.46 1008.90 1009.21 1009.50
1010.89 1010.08 1008.37 1006.39 1005.89 1005.98 1006.19 1006.09 1005.74 1005.80 1005.87 1005.98 1006.17 1005.49 1004.00 1004.11 1003.55 1002.54 1001.59 1000.25 999.36 999.16 998.79 999.09 999.76 999.38 999.99 1000.53 1001.50 1001.91 1002.83 1003.45 1004.06 1004.82 1005.27 1005.68 1006.37 1006.95 1007.36 1007.84 1008.19 1008.50 1008.78 1009.02
1010.59 1009.53 1007.86 1005.94 1006.27 1006.29 1005.55 1005.65 1005.61 1005.71 1005.63 1005.75 1005.43 1004.85 1004.35 1004.23 1003.94 1002.94 1001.78 1000.77 999.95 999.66 999.33 998.84 999.46 999.57 999.66 999.96 1000.68 1001.67 1002.68 1003.19 1003.91 1004.77 1005.27 1005.67 1006.23 1006.69 1007.13 1007.55 1007.92 1008.20 1008.44 1008.58
1009.04 1007.65 1006.13 1005.70 1005.37 1004.94 1005.18 1005.52 1005.50 1005.68 1005.52 1005.56 1005.41 1004.97 1004.46 1004.27 1003.96 1003.52 1002.51 1001.45 1000.47 999.94 1000.02 999.89 999.96 1000.36 999.67 999.65 1000.62 1001.71 1002.57 1002.97 1003.83 1004.53 1004.94 1005.40 1006.07 1006.62 1007.14 1007.46 1007.78 1008.02 1008.33 1008.40
1008.25 1006.61 1006.07 1005.59 1005.23 1005.10 1005.13 1005.13 1005.08 1005.14 1005.22 1005.31 1005.11 1004.68 1004.31 1004.23 1003.97 1003.90 1003.11 1002.04 1001.03 1000.58 1000.29 1000.50 1000.52 1000.91 1001.53 1001.56 1000.85 1001.47 1002.44 1003.06 1003.76 1004.54 1005.23 1005.88 1006.16 1006.69 1007.16 1007.59 1007.83 1008.12 1008.38 1008.65
1007.50 1006.62 1005.84 1005.27 1004.95 1004.86 1004.56 1004.60 1004.80 1004.82 1004.86 1004.90 1004.74 1004.40 1004.24 1003.97 1003.81 1003.96 1003.77 1002.67 1002.04 1001.56 1001.07 1000.85 1000.89 1001.61 1002.17 1003.23 1003.14 1002.40 1002.59 1003.57 1004.39 1004.53 1005.05 1006.04 1006.82 1007.40 1007.66 1007.97 1008.02 1008.17 1008.57 1008.71
1006.62 1005.70 1005.54 1005.22 1004.75 1004.53 1004.46 1004.35 1004.28 1004.41 1004.35 1004.36 1004.19 1003.86 1003.59 1003.46 1003.65 1003.82 1003.83 1003.22 1002.82 1002.06 1001.52 1001.15 1000.52 1000.85 1001.69 1002.82 1003.14 1003.81 1004.64 1004.88 1004.89 1005.28 1006.05 1006.47 1007.26 1008.08 1008.46 1008.65 1008.61 1008.66 1008.92 1008.93
1005.56 1005.11 1004.94 1004.70 1004.50 1004.11 1004.11 1003.83 1003.88 1003.97 1004.07 1003.87 1003.65 1003.53 1003.30 1002.90 1003.09 1003.26 1003.45 1003.31 1002.78 1001.87 1000.94 1000.01 1000.57 1000.50 1000.96 1003.47 1004.48 1005.45 1005.80 1006.13 1006.44 1006.10 1006.41 1006.87 1007.36 1007.80 1008.48 1009.25 1009.19 1009.20 1009.28 1009.40
1004.79 1004.92 1004.63 1004.08 1003.99 1003.64 1003.54 1003.22 1003.29 1003.59 1003.63 1003.59 1003.44 1003.16 1002.75 1002.43 1002.61 1002.80 1003.25 1002.93 1002.37 1001.53 1001.20 1000.46 1000.83 1000.44 999.61 1003.76 1005.99 1005.75 1006.41 1006.64 1006.51 1006.55 1006.77 1007.13 1007.50 1007.85 1008.22 1008.43 1009.07 1009.65 1009.91 1010.00
1004.14 1004.03 1003.53 1003.41 1003.51 1003.48 1003.17 1002.89 1003.12 1003.49 1003.25 1002.09 1002.61 1002.77 1002.25 1002.10 1001.99 1002.41 1002.92 1002.57 1002.28 1002.01 1001.59 1001.14 1001.33 1002.34 1002.17 1004.10 1005.07 1005.76 1006.45 1006.80 1006.85 1006.71 1006.75 1007.24 1007.50 1007.80 1008.11 1008.48 1008.90 1009.48 1009.96 1010.23
1003.63 1003.34 1002.99 1003.06 1003.16 1002.90 1002.70 1002.82 1003.28 1003.17 1002.80 1002.50 1001.88 1001.47 1001.69 1001.77 1001.95 1002.13 1002.23 1002.07 1001.96 1002.00 1001.97 1002.11 1002.14 1002.84 1002.13 1002.75 1004.09 1005.80 1006.50 1006.95 1007.21 1007.14 1006.86 1007.21 1007.32 1007.81 1008.14 1008.39 1009.03 1009.37 1009.60 1009.97
1003.50 1003.16 1002.71 1002.57 1002.43 1002.14 1002.08 1002.36 1002.73 1002.67 1002.57 1002.44 1002.03 1001.01 1001.81 1002.15 1002.30 1002.28 1001.89 1001.87 1001.94 1001.97 1001.92 1001.60 1001.58 1001.32 1002.33 1002.85 1004.55 1005.90 1006.91 1007.27 1007.28 1007.35 1007.36 1007.30 1007.65 1008.03 1008.12 1008.27 1008.61 1009.27 1009.70 1010.07
1003.34 1003.07 1002.50 1002.23 1002.03 1001.89 1001.89 1001.94 1002.20 1002.32 1002.25 1002.53 1002.28 1002.52 1002.37 1002.23 1002.40 1002.38 1002.26 1002.35 1002.46 1002.47 1002.18 1001.92 1001.91 1001.79 1002.87 1003.95 1005.30 1006.16 1006.80 1007.00 1007.22 1007.39 1007.35 1007.67 1008.09 1008.27 1008.37 1008.41 1008.65 1008.99 1009.68 1010.32
1003.46 1003.02 1002.66 1002.60 1002.52 1002.20 1002.04 1001.85 1001.89 1002.27 1002.14 1002.22 1002.58 1002.30 1002.09 1002.15 1002.38 1002.41 1002.77 1002.78 1003.03 1003.23 1002.79 1002.47 1002.66 1003.27 1004.15 1004.86 1005.33 1006.16 1006.89 1007.28 1007.30 1007.29 1007.68 1008.17 1008.38 1008.73 1008.72 1008.59 1008.69 1008.97 1009.83 1010.03
1003.94 1003.48 1002.72 1002.89 1003.03 1002.48 1002.43 1002.26 1002.07 1002.18 1002.35 1002.10 1001.96 1002.10 1002.31 1002.56 1002.74 1002.95 1003.25 1003.41 1003.59 1003.47 1003.25 1003.36 1003.84 1004.42 1004.81 1005.30 1005.81 1006.13 1006.60 1006.87 1007.34 1007.70 1008.28 1008.32 1008.49 1008.75 1009.08 1008.91 1009.33 1009.22 1009.53 1009.41
1004.36 1003.85 1003.20 1003.41 1003.64 1003.39 1003.08 1002.72 1002.28 1002.05 1002.02 1002.02 1001.99 1002.04 1002.46 1002.81 1002.63 1002.90 1003.39 1003.72 1003.77 1003.69 1003.82 1003.94 1004.34 1004.85 1005.32 1005.61 1005.69 1005.85 1006.34 1006.85 1007.39 1008.01 1008.49 1008.89 1009.22 1009.54 1009.64 1010.01 1010.38 1010.56 1010.57 1010.20
1005.01 1004.40 1004.11 1004.17 1003.97 1003.50 1003.22 1002.80 1002.34 1001.90 1001.67 1001.79 1001.85 1002.14 1002.49 1002.89 1003.06 1003.31 1003.59 1003.72 1004.00 1004.19 1004.43 1004.49 1004.78 1005.09 1005.19 1005.41 1005.65 1005.93 1006.58 1007.30 1007.88 1008.11 1008.86 1009.41 1010.18 1010.20 1010.72 1011.00 1011.31 1011.65 1011.46 1011.33
1004.93 1004.61 1004.12 1003.82 1003.45 1003.22 1002.84 1002.63 1002.23 1001.90 1001.52 1001.53 1001.71 1001.91 1002.21 1002.41 1002.64 1003.27 1003.75 1003.94 1004.25 1004.48 1004.57 1004.82 1005.11 1005.19 1005.65 1005.92 1006.05 1006.67 1007.17 1007.62 1008.34 1008.44 1009.54 1010.16 1010.49 1010.99 1011.34 1011.75 1011.94 1012.31 1012.47 1012.67
1004.75 1004.32 1003.98 1003.52 1003.27 1003.09 1002.85 1002.48 1001.99 1001.67 1001.43 1001.31 1001.38 1001.62 1001.93 1002.73 1003.34 1003.49 1003.71 1004.23 1004.59 1004.96 1005.03 1004.77 1005.22 1005.69 1006.15 1006.66 1006.88 1007.43 1007.97 1008.29 1008.88 1009.64 1010.81 1011.10 1011.33 1011.65 1012.08 1012.14 1012.65 1013.06 1013.18 1013.32
1004.53 1004.21 1003.83 1003.52 1003.22 1003.00 1002.66 1002.44 1002.07 1001.77 1001.52 1001.50 1001.68 1001.96 1002.33 1002.55 1002.68 1003.55 1004.01 1004.43 1004.98 1005.21 1005.39 1005.55 1005.62 1005.81 1006.73 1007.48 1007.86 1008.70 1008.85 1009.45 1010.09 1010.33 1010.96 1011.91 1012.04 1012.30 1012.80 1012.75 1013.21 1013.59 1013.49 1013.74
1004.49 1004.11 1003.87 1003.67 1003.33 1003.03 1002.71 1002.44 1002.17 1001.94 1001.80 1001.93 1002.14 1002.51 1002.83 1002.99 1003.01 1003.51 1004.14 1004.78 1005.13 1005.45 1005.73 1006.09 1006.33 1006.16 1007.57 1008.29 1008.88 1009.56 1009.66 1010.49 1010.97 1011.31 1011.88 1012.38 1012.26 1012.96 1013.60 1013.14 1013.91 1014.19 1014.09 1014.21
1004.23 1003.98 1003.78 1003.46 1003.21 1002.92 1002.65 1002.43 1002.18 1001.89 1001.78 1002.07 1002.37 1002.72 1002.91 1003.26 1003.56 1003.94 1004.58 1005.06 1005.47 1005.71 1006.30 1007.08 1007.12 1007.62 1008.22 1008.93 1009.57 1010.57 1010.39 1011.29 1011.62 1012.31 1012.98 1012.76 1013.21 1013.52 1013.45 1013.70 1014.12 1014.38 1014.60 1014.95
Wind_Speed
5 5 3 2 4 4 6 5 6 6 8 8 9 9 10 11 9 9 9 9 8 9 9 8 9 8 9 10 12 12 12 12 12 10 9 8 8 7 6 7 7 7 7 7
4 3 3 5 7 7 5 4 5 4 8 7 7 7 6 13 6 7 8 9 9 8 7 8 9 12 10 10 11 13 13 12 9 9 9 8 7 6 6 6 6 7 7 8
5 2 7 6 7 8 4 2 5 5 7 3 9 15 10 14 13 9 7 10 10 10 13 12 15 9 12 12 11 11 9 9 10 9 9 9 8 7 7 8 7 7 7 8
5 2 6 6 4 6 6 5 6 3 5 3 7 12 17 12 6 10 11 8 9 9 9 8 7 10 9 11 12 10 8 8 9 10 9 8 8 9 7 6 8 7 7 7
4 5 4 2 5 5 7 9 6 5 1 4 9 10 6 3 9 13 16 16 11 6 6 5 6 11 11 12 12 11 10 9 8 9 9 8 9 9 6 7 6 7 5 8
3 4 7 8 3 2 3 8 5 4 3 4 5 6 9 8 17 23 20 13 12 6 4 6 6 10 12 13 12 12 10 10 8 9 8 8 8 8 5 5 7 6 7 7
4 4 7 8 4 2 4 7 4 3 6 5 5 7 11 13 15 17 16 14 7 5 6 6 7 11 11 13 13 12 9 7 7 8 9 8 6 4 5 6 5 6 7 6
3 3 7 6 4 6 7 3 4 5 8 8 9 13 14 10 9 14 10 12 10 4 3 4 6 9 12 14 10 10 9 8 6 6 5 6 7 5 5 6 7 7 6 5
10 9 4 5 6 5 3 4 5 4 6 7 8 11 13 10 5 9 5 6 9 6 8 9 8 4 9 9 11 10 9 8 7 7 6 6 6 6 4 5 4 3 4 4
1 5 7 5 6 6 5 8 7 6 7 6 11 11 12 8 3 7 7 4 5 8 11 12 12 13 12 4 10 11 8 7 5 6 5 3 3 2 3 2 2 2 3 3
5 7 7 7 4 7 7 6 5 6 7 5 7 10 10 7 4 5 7 3 4 7 10 12 13 14 13 12 9 4 6 5 2 3 6 6 6 4 3 4 2 2 1 2
7 9 5 7 4 5 7 5 5 6 4 5 4 7 7 6 5 4 7 3 3 3 9 10 15 16 17 16 7 8 5 3 3 5 3 5 6 5 14 9 8 9 8 5
8 5 7 7 6 6 6 5 6 5 6 5 4 3 8 8 8 5 5 3 5 1 2 10 11 15 16 11 9 6 5 5 3 5 4 5 5 5 5 4 9 10 9 8
10 3 7 6 7 6 6 5 3 4 9 7 5 2 4 6 3 5 7 10 7 2 8 11 11 12 17 11 2 5 5 5 3 4 4 4 5 4 3 3 2 2 7 5
13 10 15 3 4 6 7 4 3 4 6 1 5 7 6 6 4 5 6 5 5 7 7 9 13 10 9 10 7 5 4 2 2 3 4 4 4 3 3 4 4 3 2 1
11 9 8 9 6 9 8 5 4 6 5 3 10 8 5 5 4 4 4 6 4 4 7 11 11 8 9 10 9 4 4 5 3 3 4 3 4 4 4 5 4 3 3 2
3 7 3 4 7 6 6 2 7 7 6 5 4 12 3 2 4 7 5 2 2 7 4 4 7 9 9 9 7 4 3 3 4 3 3 3 3 3 3 3 4 3 3 2
1 3 3 1 3 2 4 2 6 7 7 5 8 3 10 6 6 3 2 4 6 5 4 5 5 9 7 7 6 5 4 3 3 3 3 3 3 3 2 2 3 4 2 1
3 4 6 6 6 4 4 5 3 3 5 7 7 10 10 7 3 4 5 6 5 5 2 6 9 8 5 6 8 5 4 4 4 4 4 5 4 3 3 4 4 4 3 2
6 5 6 6 6 6 6 5 5 2 4 4 4 3 3 3 6 7 5 5 2 1 4 5 6 5 5 8 9 6 7 7 6 5 4 5 5 5 4 6 4 4 2 2
8 8 9 9 7 6 5 5 6 5 4 4 4 4 5 4 4 6 6 4 2 4 5 7 5 4 4 5 7 6 6 6 5 5 5 5 5 6 7 6 6 6 6 6
5 6 6 6 7 4 4 6 6 6 5 4 4 4 7 6 6 5 3 3 2 3 3 4 4 6 5 6 4 5 6 6 5 6 6 6 5 7 8 8 8 8 9 9
7 6 7 6 6 6 6 4 6 6 6 5 6 7 9 7 6 6 4 2 3 3 3 2 5 8 9 4 6 7 8 9 8 9 8 8 8 8 9 8 8 8 8 8
6 6 6 7 5 5 8 8 7 5 4 4 4 7 9 7 3 2 4 7 6 5 3 5 9 14 10 6 7 8 8 9 10 10 10 9 9 8 8 8 8 7 7 8
7 6 6 7 6 4 7 6 5 4 3 2 4 4 4 2 5 4 6 5 9 6 7 10 15 16 8 7 9 9 8 8 8 10 10 8 8 8 7 8 7 7 7 7
6 7 5 6 4 4 5 5 2 2 1 2 3 4 3 2 6 7 6 8 6 7 7 5 6 10 9 9 10 10 11 10 8 8 8 6 8 8 6 7 7 6 6 6
5 6 4 3 2 3 4 4 2 0 1 3 4 3 3 4 6 8 8 7 6 7 7 7 7 9 10 10 10 9 10 10 11 9 6 7 8 7 7 7 6 5 5 5
Wind_Direction
224 243 304 268 215 202 188 186 158 235 204 263 281 297 296 288 292 288 254 262 221 224 201 195 169 167 166 162 157 160 174 176 186 182 183 186 185 187 182 172 186 182 182 192
285 249 227 253 248 246 238 186 250 246 266 217 291 280 281 302 305 296 301 285 259 208 216 197 209 173 166 160 161 165 177 181 172 168 168 180 180 175 170 179 175 177 190 189
264 318 313 310 216 200 199 189 170 187 234 352 317 319 324 308 312 297 282 283 270 238 210 197 186 169 169 160 147 171 192 171 167 169 174 179 177 166 178 184 175 190 196 197
222 26 248 246 280 222 194 209 213 256 250 312 279 290 295 283 267 304 309 267 260 254 282 176 139 140 146 148 151 166 181 184 170 170 175 173 169 179 179 175 184 189 203 205
179 197 284 239 210 153 179 253 205 231 32 309 317 324 296 231 351 320 300 290 267 216 216 307 154 146 165 144 151 159 178 182 178 169 170 170 181 180 176 174 182 192 194 200
137 188 220 237 161 92 115 268 250 138 269 316 354 337 282 319 338 318 310 288 292 207 149 155 165 168 142 147 155 167 182 192 178 174 173 174 187 181 171 177 196 191 208 208
172 216 282 249 201 106 142 263 201 200 226 248 232 210 274 324 315 309 296 295 318 264 171 175 176 157 152 151 173 177 172 173 163 166 177 184 166 158 167 181 181 195 213 214
101 143 273 174 114 171 218 210 213 237 238 241 251 278 287 304 313 321 340 353 352 17 43 124 180 182 159 164 160 149 164 158 159 146 154 152 165 171 176 183 199 205 207 221
176 207 237 205 212 231 168 240 254 245 248 238 261 270 287 301 323 309 344 4 358 28 69 52 40 330 182 156 142 147 152 151 161 158 164 161 166 176 175 185 205 221 233 240
110 257 240 242 256 253 254 236 251 247 260 249 266 277 281 285 279 293 294 36 40 42 58 47 44 40 20 340 145 144 156 159 151 151 146 144 105 112 140 165 175 172 190 234
264 284 286 277 249 260 276 248 269 264 262 256 278 281 273 257 230 264 294 11 18 86 96 85 71 58 47 8 324 72 95 109 120 121 130 108 70 57 93 60 42 136 164 200
227 229 194 248 270 261 254 256 275 259 282 279 255 278 262 227 220 222 258 266 304 127 119 113 100 83 60 31 342 25 64 37 71 90 74 88 105 93 44 58 56 63 47 44
243 225 210 252 276 262 256 253 265 263 276 264 280 267 269 231 213 218 249 243 254 13 97 102 94 95 87 69 9 36 52 58 79 83 97 107 97 105 117 52 56 48 50 49
232 198 276 224 243 231 233 248 242 295 288 313 256 207 223 225 218 199 198 196 220 107 104 90 75 63 88 80 42 69 71 58 95 109 105 112 122 127 127 122 101 58 43 49
266 231 245 211 180 239 250 245 238 291 297 351 286 226 226 216 208 178 216 221 182 130 98 96 100 93 99 133 113 98 101 76 81 101 99 111 123 117 112 106 100 116 141 110
296 274 235 216 223 230 233 217 198 226 233 328 311 318 217 258 285 227 201 178 132 115 134 134 122 147 111 105 109 114 108 124 119 124 118 126 117 125 132 124 116 110 100 89
325 316 252 216 207 228 226 156 198 191 215 196 247 289 79 245 290 255 172 74 130 124 109 95 97 81 77 92 114 111 128 140 123 106 116 103 118 123 113 117 125 127 106 83
169 279 5 145 135 54 353 305 199 185 186 194 223 247 283 260 233 221 132 126 85 77 97 74 79 77 81 110 131 142 145 143 143 128 101 96 110 126 121 111 113 125 119 124
20 48 27 3 7 23 9 356 332 241 210 194 234 236 214 225 220 153 129 119 124 140 171 119 114 106 120 148 133 126 139 141 126 109 110 125 95 80 86 83 83 102 110 118
349 346 38 355 337 10 356 339 341 307 249 213 189 226 209 140 146 136 135 120 155 205 129 110 112 134 139 147 149 154 146 139 138 126 133 111 102 97 86 74 88 96 95 95
340 348 2 333 321 323 340 323 315 312 319 214 213 203 149 168 126 114 109 120 227 145 130 129 137 141 153 143 141 137 132 126 122 120 115 102 95 75 71 64 51 41 37 37
317 313 298 288 287 302 307 302 300 295 286 195 209 173 143 154 137 102 60 162 184 165 145 145 139 149 138 123 127 118 122 122 109 100 87 84 82 80 70 60 54 44 44 44
307 300 297 303 312 314 310 328 314 298 271 198 184 175 168 164 159 144 160 171 138 179 150 154 162 143 129 115 111 114 116 104 101 91 86 90 88 87 82 78 75 64 57 49
308 313 304 303 311 334 336 333 328 323 290 225 167 157 147 139 99 88 114 134 137 132 108 113 124 120 113 99 98 98 96 94 94 91 91 86 89 87 86 83 74 67 63 54
296 294 299 319 322 314 315 331 329 357 10 115 122 131 127 105 148 153 135 121 123 108 103 106 104 92 90 89 90 89 88 93 106 110 102 95 86 81 84 86 82 75 69 62
293 291 296 295 285 305 310 318 333 353 54 92 94 122 129 123 116 120 114 121 126 114 105 99 98 92 96 98 97 102 104 105 94 79 88 93 98 93 92 90 82 72 71 70
285 276 304 302 287 294 311 311 288 18 56 95 100 103 121 116 114 116 119 126 114 89 87 83 84 93 104 103 98 97 97 99 99 84 89 94 93 99 95 86 87 82 74 62